Tracking 27111 objects as of 28-Mar-2023
HD Live streaming from Space Station
objects crossing your sky now

STARLINK-5399

Track STARLINK-5399 now!
10-day predictions
STARLINK-5399 is classified as:


NORAD ID: 54788
Int'l Code: 2022-175AG
Perigee: 545.9 km
Apogee: 547.8 km
Inclination: 53.2 °
Period: 95.4 minutes
Semi major axis: 6917 km
RCS: Unknown
Launch date: December 17, 2022
Source: United States (US)
Launch site: AIR FORCE EASTERN TEST RANGE (AFETR)
Your satellite tracking list
Your tracking list is empty




NASA's NSSDC Master Catalog

Two Line Element Set (TLE):
1 54788U 22175AG  23087.44226696  .00001116  00000-0  88169-4 0  9993
2 54788  53.2159 184.9346 0001351 111.0727 249.0410 15.08854680 15341
Source of the keplerian elements: AFSPC